Weather History for Glendale Luke AFB, AZ

Change the Weather History Date:

Thursday, February 7, 2013

  Actual Average Record
Temperature  
Mean Temperature 58 °F -  
Max Temperature 71 °F 70 °F 92 °F (1963)
Min Temperature 46 °F 39 °F 26 °F (1964)
Degree Days  
Heating Degree Days 6    
Growing Degree Days 8 (Base 50)    
Moisture  
Dew Point 42 °F    
Average Humidity 58    
Maximum Humidity 83    
Minimum Humidity 28    
Precipitation  
Precipitation 0.00 in - - ()
Sea Level Pressure  
Sea Level Pressure 30.00 in    
Wind  
Wind Speed 3 mph (North)    
Max Wind Speed 8 mph    
Max Gust Speed -    
Visibility 10 miles    
Events      
Averages and records for this station are not official NWS values.
T = Trace of Precipitation, MM = Missing Value Source: NWS Daily Summary

Daily Weather History Graph

Daily Weather History Graph

Search for Another Location

Airport:

Trip Planner

Search our weather history database for the weather conditions in past years. The results will help you decide how hot, cold, wet, or windy it might be!

Date:

Astronomy

Feb. 07, 2013 Rise Set
Actual Time 7:20 AM MST 6:07 PM MST
Civil Twilight 6:55 AM MST 6:32 PM MST
Nautical Twilight 6:25 AM MST 7:02 PM MST
Astronomical Twilight 5:56 AM MST 7:31 PM MST
Moon 4:59 AM MST (2/7) 3:39 PM MST (2/7)
Length of Visible Light 11h 37m
Length of Day
10h 46m
Waning Crescent, 8% of the Moon is Illuminated
Feb 7
Waning Crescent
Feb 10
New
Feb 17
First Quarter
Feb 25
Full
Mar 4
Last Quarter

Hourly Weather History & Observations

Time (MST) Temp. Windchill Dew Point Humidity Pressure Visibility Wind Dir Wind Speed Gust Speed Precip Events Conditions
12:55 AM 57.2 °F - 44.6 °F 63% 30.02 in 10.0 mi NNE 1.2 mph - N/A   Clear
1:55 AM 51.8 °F - 42.8 °F 71% 30.02 in 10.0 mi NNW 2.3 mph - N/A   Clear
2:55 AM 48.2 °F - 41.0 °F 76% 30.02 in 10.0 mi NE 4.6 mph - N/A   Clear
3:58 AM 48.0 °F - 41.5 °F 78% 30.02 in 10.0 mi North 4.6 mph - N/A   Clear
4:58 AM 48.0 °F - 40.6 °F 76% 30.02 in 10.0 mi North 4.6 mph - N/A   Clear
5:58 AM 46.4 °F 45.2 °F 40.8 °F 81% 30.03 in 10.0 mi NNE 3.5 mph - N/A   Clear
6:58 AM 48.0 °F - 41.5 °F 78% 30.05 in 10.0 mi ENE 2.3 mph - N/A   Clear
7:58 AM 46.6 °F - 41.7 °F 83% 30.08 in 10.0 mi NNW 4.6 mph - N/A   Clear
8:58 AM 52.0 °F - 43.7 °F 73% 30.09 in 10.0 mi NNE 3.5 mph - N/A   Clear
9:58 AM 57.6 °F - 45.5 °F 64% 30.10 in 10.0 mi NNE 3.5 mph - N/A   Clear
10:58 AM 61.3 °F - 44.6 °F 54% 30.10 in 10.0 mi Variable 2.3 mph - N/A   Clear
11:58 AM 64.6 °F - 44.2 °F 48% 30.08 in 10.0 mi NE 3.5 mph - N/A   Clear
12:58 PM 67.5 °F - 41.9 °F 39% 30.04 in 10.0 mi ESE 4.6 mph - N/A   Clear
1:58 PM 69.6 °F - 41.2 °F 36% 30.01 in 10.0 mi SSE 2.3 mph - N/A   Clear
2:58 PM 71.2 °F - 36.7 °F 28% 29.99 in 10.0 mi Variable 1.2 mph - N/A   Clear
3:58 PM 71.4 °F - 36.7 °F 28% 29.97 in 10.0 mi Variable 1.2 mph - N/A   Clear
4:58 PM 70.9 °F - 37.4 °F 29% 29.95 in 10.0 mi SW 5.8 mph - N/A   Clear
5:58 PM 69.4 °F - 37.9 °F 32% 29.94 in 10.0 mi West 2.3 mph - N/A   Clear
6:58 PM 63.9 °F - 42.3 °F 45% 29.95 in 10.0 mi NW 4.6 mph - N/A   Clear
7:58 PM 59.2 °F - 41.7 °F 52% 29.95 in 10.0 mi NNW 5.8 mph - N/A   Clear
8:58 PM 57.9 °F - 41.0 °F 53% 29.94 in 10.0 mi NE 5.8 mph - N/A   Clear
9:58 PM 55.4 °F - 42.8 °F 63% 29.92 in 10.0 mi North 6.9 mph - N/A   Clear
10:58 PM 53.4 °F - 41.9 °F 65% 29.91 in 10.0 mi NNW 8.1 mph - N/A   Clear
11:58 PM 52.5 °F - 42.6 °F 69% 29.90 in 10.0 mi NNE 3.5 mph - N/A   Clear